Voltar ao catálogo

ECHO 1 DEB

METAL OBJ

AtivoLEO
NORAD 51·DEBRIS·🇺🇸 United States

Lançado Aug 12, 1960 de Cape Canaveral Space Force Station

Loading…

Próximas Passagens (próximas 24 horas)

TLE

AtualizadoSource: Space-Track

Época: Sep 7, 2026, 03:21 UTC

1 00051U 60009C   26250.13997618 -.00000010  00000-0  73924-3 0  9990
2 00051  47.2112 155.7637 0108385  79.6339 281.6646 12.18383881941168

Acompanhe ECHO 1 DEB em tempo real com AllMySat

Download on the App Store